{"data":{"norad_id":53088,"epoch":"2026-05-25T01:59:08.755008Z","epoch_age_seconds":61895,"freshness":"FRESH","line1":"1 53088U 22077AX  26145.08274022  .00008231  00000+0  57452-3 0  9994","line2":"2 53088  97.4455 324.9591 0001219  99.6098 260.5267 15.05605580212409","mean_motion":15.0560558,"eccentricity":0.0001219,"inclination_deg":97.4455,"raan_deg":324.9591,"arg_perigee_deg":99.6098,"mean_anomaly_deg":260.5267,"bstar":0.00057452,"rev_number":21240,"period_min":95.642578582898,"perigee_km":548.80291441542,"apogee_km":550.4919082549,"semimajor_km":6927.7844113352,"source":"CELESTRAK","updated_at":"2026-05-25T13:38:17.315462Z"}}